Время (UTC), дата Ветер
(°,м/с) 
Видим.   Явления Облачность Т
(°С)
Тd
(°С)
f(%) Тe
(°С)
Pmin
(гПа)
dP
(гПа)
Po
(мм)
O2
(г/м3)
Тmin Tmax R s Состояние
почвы
00 01.06.12 160 (Ю) >10 км    3/0 верхняя 
[Ci fib]
+21.4 +12.4 56 +26  1015.6  -0.1  755  280  +10.3         
03 01.06.12 270 (З) >10 км    9/3 600 м кучево-дожд., средняя 
[Cb cap|Ac trans]
+26.2 +11.7 40 +30  1014.3  -1.1  754  275           
06 01.06.12 290 (З) >10 км    3/1 600 м кучево-дожд., средняя 
[Cb cap|Ac trans]
+29.2 +8.6 28 +29  1012.5  -1.8  753  273           
09 01.06.12 250 (З) >10 км    9/5 600 м кучево-дожд., верхняя 
[Cb cap|Cs]
+27.1 +12.1 39 +31  1012.1  -0.4  752  274    +29.7       
12 01.06.12 270 (З) >10 км    9/1 600 м средняя 
[Cu med, cong|As trans]
+21.2 +10.9 52 +23  1012.7  0.5  753  280    +29.7       
15 01.06.12 тихо ()   >10 км    3/3 1000 м 
[Sc]
+17.5 +11 66 +20  1013.4  0.5  753  283           
18 01.06.12 050 (СВ) >10 км  зарница  9/9 600 м кучево-дожд. 
[Cb cap]
+16 +9.9 67 +18  1014.4  0.8  754  285           
21 01.06.12 360 (С) >10 км    9/6 600 м кучево-дожд., средняя 
[Cb cap|As op]
+17.4 +11.1 66 +22  1014  -0.2  754  283           
00 02.06.12 090 (В) >10 км    9/5 1000 м средняя, верхняя 
[Sc|Ac trans|Ci fib]
+23.1 +14.5 58 +31  1013.8  754  277  +15.9         
03 02.06.12 230 (ЮЗ) >10 км    3/1 600 м верхняя 
[Cu med, cong|Ci fib]
+28.1 +15.4 46 +37  1011.8  -1.9  752  272           
06 02.06.12 270 (З) >10 км    4/4 600 м кучево-дожд. 
[Cb cap]
+29.6 +12.5 35 +34  1009.6  -2.2  751  271           
09 02.06.12 360 (С) >10 км    10/8 600 м кучево-дожд., средняя 
[Cb cap|Ac cuf]
+25.4 +15.5 54 +35  1010.1  0.4  751  274    +30.2       
12 02.06.12 360 (С) >10 км    10/3 600 м кучево-дожд., средняя 
[Cb cap|Ac cuf]
+19.6 +12.1 62 +25  1011.3  752  280    +30.2       
15 02.06.12 тихо ()   >10 км    9/1 600 м кучево-дожд., средняя 
[Cb cap|Ac trans]
+17.5 +13.3 76 +23  1010.5  -0.8  751  282           
18 02.06.12 320 (СЗ) >10 км    9/6 1000 м средняя 
[Sc diur, vesp|Ac trans]
+15.7 +12.4 81 +20  1010.6  751  284           
21 02.06.12 340 (С) >10 км    9/0 средняя, верхняя 
[Ac trans|Cc]
+15 +12.5 85 +21  1010.1  -0.5  751  284           
00 03.06.12 тихо ()   >10 км    9/8 1000 м кучево-дожд., средняя 
[Cb cap|Ac trans]
+20 +13.4 66 +26  1009.7  -0.3  750  279  +13         
03 03.06.12 200 (Ю) >10 км    4/3 1000 м средняя 
[Cu med, cong|Ac trans]
+26.2 +15 50 +35  1008.2  -1.2  750  273           
06 03.06.12 250 (З) 1{11}  >10 км  гроза, ливневой дождь  8/6 600 м кучево-дожд., верхняя 
[Cb cap|Ci fib]
+24.7 +16.4 60 +36  1005.8  -2.5  748  273           
12 03.06.12 тихо ()   >10 км  местами туман поземный{гроза, ливн. осадки}  3/0 средняя 
[Ac trans]
+19.1 +17.3 89 +32  1005.7  0.6  747  278    +28.6  0.7     
15 03.06.12 тихо ()   >10 км  местами туман поземный  ясно 
+14.9 +13.8 93 +22  1006.3  0.5  748  283           
18 03.06.12 050 (СВ) >10 км  туман поземный  ясно 
+13 +12.3 96 +18  1006.1  -0.2  748  285           
21 03.06.12 230 (ЮЗ) >10 км    1/0 средняя 
[Ac lent]
+14 +13.1 94 +21  1006.4  0.3  748  284           
00 04.06.12 160 (Ю) >10 км    8/0 средняя, верхняя 
[Ac lent|Ci]
+19.1 +14.1 73 +28  1006.3  748  279  +11.1         
03 04.06.12 200 (Ю) >10 км    9/3 600 м кучево-дожд., верхняя 
[Cb cap|Cs]
+24.5 +16.5 61 +36  1004.8  -1.3  747  273           
06 04.06.12 250 (З) >10 км    10/4 600 м кучево-дожд., верхняя 
[Cb cap|Cs]
+25.5 +14.1 49 +33  1002.3  -2.4  745  272           
09 04.06.12 230 (ЮЗ) >10 км    10/3 600 м кучево-дожд., верхняя 
[Cb cap|Cs]
+24.9 +13.3 48 +31  1001.3  -1  744  272    +26.4       
12 04.06.12 250 (З) 10 км    8/5 600 м кучево-дожд., верхняя 
[Cb cap|Cs]
+19.6 +14.3 71 +28  1001.9  0.4  745  277    +26.4       
15 04.06.12 230 (ЮЗ) >10 км  слаб. ливневой снег  10/10 1000 м 
+17 +14.2 84 +26  1001.7  -0.2  745  279           
18 04.06.12 320 (СЗ) >10 км    10/5 1000 м средняя 
[Sc|Ac As]
+16.2 +13 81 +24  1001.4  -0.3  744  281           
21 04.06.12 090 (В) >10 км  {дождь}  10/0 средняя 
[As op]
+15.4 +13.6 89 +24  1001.5  744  281           
00 05.06.12 тихо ()   4000 м  дымка{дождь}  10/0 средняя 
[Ac As]
+16.6 +14.5 87 +25  1001.4  744  280  +15.3    0.0     
03 05.06.12 230 (ЮЗ) >10 км  гроза без осадков  10/6 600 м кучево-дожд., средняя 
[Cb cap|Ac As]
+20.8 +14.1 65 +28  1000.5  -0.7  744  276           
06 05.06.12 250 (З) 4000 м  ливневой дождь{гроза}  10/8 600 м кучево-дожд., средняя 
[Cb cap|Ac As]
+18.2 +16.9 92 +32  1000.4  -0.3  744  277           
12 05.06.12 090 (В) 10 км  {ливн. осадки}  10/9 600 м кучево-дожд., средняя 
[Cb cap|Ac und]
+17.1 +14.9 87 +27  1002.1  1.8  745  279    +21.3     
15 05.06.12 050 (СВ) 10 км    9/6 600 м кучево-дожд., средняя, верхняя 
[Cb cap|Ac cuf|Cc]
+15.4 +13.4 88 +23  1003.2  746  282           
18 05.06.12 050 (СВ) 10 км    10/4 300 м средняя 
[St|Ac As]
+14 +12.5 91 +20  1003.4  0.2  746  283           
21 05.06.12 070 (В) >10 км    10/8 300 м средняя 
[St|Ac As]
+15.2 +13.4 89 +23  1003.8  0.4  746  282           
00 06.06.12 090 (В) >10 км    9/3 1000 м средняя 
[Sc|Ac As]
+17.8 +12.4 71 +23  1004.2  0.4  746  280  +13.9         
03 06.06.12 050 (СВ) >10 км    9/6 1000 м средняя, верхняя 
[Cu Sc|Ac trans|Ci fib]
+20.6 +13.5 64 +27  1003.7  -0.4  746  277           
06 06.06.12 160 (Ю) >10 км    8/5 1000 м верхняя 
[Cu med, cong|Ci fib]
+23.1 +12.4 51 +28  1002.4  -1.1  745  274           
09 06.06.12 140 (ЮВ) >10 км    8/4 600 м кучево-дожд., верхняя 
[Cb calv|Ci]
+23 +12.5 52 +28  1002.4  745  275    +23.8       
12 06.06.12 160 (Ю) >10 км    4/4 600 м кучево-дожд. 
[Cb cap]
+19.1 +12.9 67 +26  1003.2  0.6  746  278    +23.8       
15 06.06.12 090 (В) >10 км    1/0 средняя 
[Ac lent]
+15.3 +13.7 90 +24  1003.6  0.3  746  282           
18 06.06.12 050 (СВ) >10 км  туман поземный  4/0 средняя 
[Ac lent]
+12.6 +12.2 97 +18  1003.6  746  285           
21 06.06.12 110 (В) 10 км    10/0 средняя 
[As trans]
+12.8 +12.1 95 +17  1003.3  -0.3  746  285           
00 07.06.12 140 (ЮВ) >10 км    10/9 600 м кучево-дожд., средняя 
[Cb cap|As trans]
+16.5 +14.2 86 +24  1003.2  746  280  +12.3         
03 07.06.12 110 (В) >10 км  в посл. час ливневой дождь  10/10 600 м кучево-дожд. 
[Cb cap]
+19.6 +15 75 +29  1002.7  -0.5  745  277           
06 07.06.12 180 (Ю) 5-10  10 км  {ливн. осадки}  9/9 600 м кучево-дожд. 
[Cb cap]
+22 +14.2 61 +30  1000.8  -1.7  744  275           
12 07.06.12 тихо ()   4000 м  в посл. час ливневой дождь  10/10 600 м кучево-дожд. 
[Cb cap]
+18 +15.1 83 +27  1001.1  744  278    +23.1  0.4     
15 07.06.12 140 (ЮВ) 4000 м  дымка  10/10 1000 м 
[Sc]
+15.8 +14.8 94 +26  1001.1  744  280           
18 07.06.12 140 (ЮВ) 2000 м  в посл. час ливневой дождь  10/10 300 м 
[St]
+15.6 +15.3 98 +25  1000.3  -0.9  743  280           
21 07.06.12 110 (В) 4000 м  дымка{морось}  10/10 200 м 
[Frnb]
+15.8 +15.3 97 +26  999.9  -0.3  743  280           
00 08.06.12 180 (Ю) 2000 м  дождь{морось}  10/10 200 м 
[Frnb|Ns]
+15.5 +14.8 96 +26  1000  743  280  +15.4       
03 08.06.12 180 (Ю) 2000 м  дождь{морось}  10/10 200 м 
[Frnb|Ns]
+15.6 +15.1 97 +26  1000  743  280           
06 08.06.12 180 (Ю) 2000 м  слаб. дождь{морось}  10/10 200 м 
[Frnb|Ns]
+16.2 +15.7 97 +27  999.9  743  279           
12 08.06.12 090 (В) 4000 м  дымка{дождь}  10/8 100 м средняя 
[St|As op]
+15.7 +15.5 99 +27  1001.5  1.3  744  280    +17.1  12     
15 08.06.12 110 (В) 4000 м  дымка  10/10 100 м 
[St]
+15.2 +15 99 +26  1002  0.4  745  281           
18 08.06.12 110 (В) 4000 м  дымка  10/10 200 м 
[St]
+14.7 +14.5 99 +24  1002.8  0.8  745  282           
21 08.06.12 110 (В) 4000 м  дымка  10/10 200 м 
[St]
+15 +14.3 96 +24  1003.3  0.5  746  282           
00 09.06.12 140 (ЮВ) 10 км    10/9 300 м средняя 
[St|As trans]
+17 +14.8 87 +25  1003.5  0.3  746  280  +14.6         
03 09.06.12 110 (В) 10 км  слаб. дождь{морось}  10/10 300 м 
[St|Ns]
+15.6 +14.2 91 +23  1003.7  0.1  746  281           
06 09.06.12 090 (В) 10 км  слаб. морось{дождь}  10/10 200 м 
[St]
+15.3 +14.8 97 +24  1004.3  0.5  746  282           
12 09.06.12 110 (В) >10 км  {дождь, морось}  10/10 600 м 
[Sc]
+14.2 +12.4 89 +20  1005.7  1.4  747  284    +17.2     
15 09.06.12 110 (В) >10 км    10/10 1000 м 
[Sc]
+13.3 +11.2 87 +17  1005.3  -0.4  747  285           
18 09.06.12 090 (В) >10 км    10/10 600 м 
[Sc]
+12.6 +11.3 92 +17  1005.3  747  286           
21 09.06.12 090 (В) >10 км    10/10 1000 м 
[Sc]
+12.6 +10.3 86 +16  1005.3  747  286           
00 10.06.12 090 (В) >10 км    10/6 1000 м средняя 
[Sc|Ac und]
+14 +11 82 +18  1005.6  0.3  747  284  +12.3         
03 10.06.12 110 (В) >10 км    10/5 600 м средняя 
[Sc|Ac As]
+17.5 +12.3 72 +22  1005.2  -0.3  747  281           
06 10.06.12 090 (В) >10 км    10/3 600 м средняя 
[Sc|As op]
+18.3 +12.8 70 +24  1004.5  -0.7  747  279           
12 10.06.12 070 (В) 2{10}  >10 км    10/10 1000 м 
[Sc]
+17.1 +12.6 75 +23  1005.6  1.4  747  281    +20       
15 10.06.12 070 (В) 10 км  слаб. ливневой дождь  10/10 600 м кучево-дожд. 
[Cb cap]
+14.6 +13.3 92 +22  1006.1  0.4  748  283           
18 10.06.12 020 (С) 10 км  слаб. дождь{ливн. осадки}  10/10 1000 м 
[Sc]
+14.4 +11.8 84 +19  1006.1  748  284           
21 10.06.12 110 (В) 4000 м  ливневой дождь, в посл. час гроза  10/10 600 м кучево-дожд. 
[Cb cap]
+13 +12.6 97 +18  1006.9  0.8  748  285           
00 11.06.12 090 (В) 10 км  в посл. час ливневой дождь{гроза}  10/3 300 м кучево-дожд., средняя 
[Cb cap|Ac As]
+12.9 +11.2 89 +15  1008.2  1.3  749  286  +12.4       
03 11.06.12 110 (В) 4000 м  дождь  10/10 300 м 
[Frnb|Ns]
+12.4 +11.3 93 +15  1008.5  0.3  749  287           
06 11.06.12 090 (В) 2000 м  дождь  10/10 200 м 
[Frnb|Ns]
+12.5 +11.6 94 +16  1008.7  0.2  750  287           
12 11.06.12 050 (СВ) 2000 м  слаб. дождь{ливн. осадки}  10/10 600 м 
[Ns]
+12.3 +12.1 99 +17  1009.9  1.2  751  287    +13.7  13     
15 11.06.12 050 (СВ) 2000 м  в посл. час дождь  10/10 600 м 
[Ns]
+11.6 +11.2 97 +16  1010  0.1  751  288           
18 11.06.12 050 (СВ) 2000 м  слаб. дождь  10/10 1000 м 
[Sc]
+11.9 +11.7 99 +16  1010.2  0.2  751  288           
21 11.06.12 050 (СВ) 10 км  слаб. дождь  10/10 1000 м 
[Sc]
+11.8 +11.4 97 +16  1010.9  0.7  751  288           
00 12.06.12 070 (В) 4000 м  дождь  10/10 600 м 
[Sc|Ns]
+12.4 +11.1 92 +16  1011.6  0.7  752  288  +11.5    13     
03 12.06.12 090 (В) 10 км  слаб. дождь  10/10 300 м 
[Sc|Ns]
+12.8 +12.1 95 +17  1012  0.4  752  287           
06 12.06.12 070 (В) 10 км  слаб. дождь{морось}  10/10 300 м 
[St|Ns]
+13.6 +12.9 96 +19  1011.8  -0.2  752  286           
12 12.06.12 050 (СВ) >10 км  слаб. дождь  10/10 1000 м 
[Sc]
+14 +12.9 93 +20  1012.1  0.7  752  286    +15.1     
15 12.06.12 070 (В) >10 км  {дождь}  10/5 1000 м средняя 
[Sc|Ac und]
+12.9 +12.5 97 +19  1011.9  -0.2  752  287           
18 12.06.12 050 (СВ) >10 км  {дождь}  10/3 1000 м средняя 
[Sc|Ac und]
+12.9 +18.7 100 +30  1011.9  752  285           
21 12.06.12 050 (СВ) >10 км    10/3 1000 м средняя 
[Sc|Ac lent]
+12.8 +12.1 95 +18  1012.6  0.7  753  287           
00 13.06.12 050 (СВ) >10 км    10/0 средняя 
[Ac trans]
+15.6 +13.1 85 +22  1013  0.4  753  284  +12.6         
03 13.06.12 070 (В) >10 км    3/1 1000 м средняя 
[Cu hum|Ac As]
+20 +10.2 53 +21  1012.5  -0.4  753  281           
06 13.06.12 110 (В) >10 км    5/3 600 м кучево-дожд., средняя, верхняя 
[Cb cap|Ac trans|Cc]
+21.9 +11.3 51 +25  1011.7  -0.6  752  278           
09 13.06.12 200 (Ю) >10 км    3/1 600 м кучево-дожд., верхняя 
[Cb cap|Ci fib]
+21.8 +11 50 +24  1011.5  -0.2  752  279    +22.3       
12 13.06.12 250 (З) >10 км    3/0 средняя 
[Ac lent]
+16.3 +14 86 +24  1012.6  0.9  753  283    +22.3       
15 13.06.12 010 (С) 45  >10 км    1/0 средняя 
[Ac cast]
+12.9   1013.4  0.7  753             
18 13.06.12 180 (Ю) >10 км    9/0 средняя 
[Ac As]
+12.6 +11.9 96 +18  1013.4  753  288           
21 13.06.12 тихо ()   >10 км    9/0 средняя, верхняя 
[Ac As|Ci fib]
+13 +12.4 96 +17  1014.3  0.8  754  287           
00 14.06.12 250 (З) >10 км    1/1 1000 м 
[Cu med, cong]
+19.2 +13.2 68 +26  1014.7  0.6  754  281  +11.9         
03 14.06.12 250 (З) >10 км    3/3 1000 м 
[Cu med, cong]
+22.5 +13.6 57 +29  1014.1  -0.5  754  278           
06 14.06.12 250 (З) >10 км    3/3 1000 м 
[Cu med, cong]
+23.5 +14.2 56 +31  1013.4  -0.6  753  277           
09 14.06.12 230 (ЮЗ) >10 км    1/1 600 м кучево-дожд. 
[Cb cap]
+22.9 +14.6 59 +31  1012.9  -0.5  753  277    +24       
12 14.06.12 200 (Ю) >10 км    1/1 1000 м 
[Sc diur, vesp]
+17.8 +14.9 83 +27  1013.8  0.7  754  282    +24       
15 14.06.12 290 (З) >10 км    1/0 средняя 
[Ac lent]
+15.3 +13.7 90 +23  1014.4  0.4  754  285           
18 14.06.12 тихо ()   >10 км  местами туман поземный  3/0 средняя 
[Ac lent]
+12.8 +12.2 96 +17  1014.7  0.3  754  288           
21 14.06.12 тихо ()   >10 км    3/0 средняя, верхняя 
[Ac trans|Ci fib]
+14.4 +13.1 92 +20  1014.9  0.2  754  286           
00 15.06.12 090 (В) >10 км    10/1 1000 м средняя, верхняя 
[Cu med, cong|Ac cuf|Cs]
+18.5 +14.5 77 +28  1014.2  -0.5  754  281  +11.1         
03 15.06.12 180 (Ю) >10 км    10/5 600 м кучево-дожд., средняя, верхняя 
[Cb calv|Ac trans|Cs]
+21.4 +15 67 +30  1013.5  -0.5  753  278           
06 15.06.12 230 (ЮЗ) >10 км    8/6 600 м кучево-дожд., средняя 
[Cb cap|Ac trans]
+21.7 +14.4 63 +29  1012.1  -1.4  752  278           
09 15.06.12 250 (З) >10 км    9/5 600 м кучево-дожд., средняя 
[Cb cap|Ac As]
+20 +15.6 76 +30  1011.4  -0.9  752  279    +22.3       
12 15.06.12 200 (Ю) 10 км  слаб. дождь  10/6 1000 м средняя 
[Sc|Ac As]
+17.7 +15.7 88 +29  1011.4  752  281    +22.3       
15 15.06.12 090 (В) 10 км  {дождь}  10/10 1000 м 
[Sc]
+17 +16 94 +28  1010.9  -0.5  751  282           
18 15.06.12 тихо ()   10 км  туман поземный{дождь}  10/0 средняя 
[As trans]
+14.9 +14.4 97 +23  1010.6  -0.4  751  284           
21 15.06.12 050 (СВ) 0500 м  туман  10/0 средняя 
[As trans]
+15.8 +15.5 98 +27  1014  -0.6  751  283           
00 16.06.12 110 (В) 4000 м  дымка{туман}  10/8 600 м кучево-дожд., средняя 
[Cb cap|As trans]
+18 +16.7 92 +31  1009.7  -0.2  750  280  +14    0.1     
03 16.06.12 180 (Ю) >10 км    10/8 600 м кучево-дожд., средняя 
[Cb cap|As trans]
+20.2 +15.5 74 +30  1009.1  -0.6  750  278           
06 16.06.12 180 (Ю) >10 км    10/4 600 м кучево-дожд., средняя, верхняя 
[Cb cap|Ac As|Cs]
+22.4 +16.3 68 +33  1007.8  -1.1  749  275           
09 16.06.12 110 (В) >10 км    10/6 600 м кучево-дожд., средняя 
[Cb cap|Ac As]
+21.3 +15.8 71 +31  1006.6  -1.2  748  276    +22.8       
12 16.06.12 тихо ()   10 км  местами туман поземный  10/0 средняя 
[Ac As]
+18 +16.3 90 +29  1007.5  0.7  749  279    +22.8       
15 16.06.12 360 (С) 10 км  местами туман поземный  ясно 
+15.4 +15.1 98 +26  1007.4  -0.2  749  282           
18 16.06.12 360 (С) 10 км    9/0 средняя 
[Ac As]
+15.5 +15 97 +26  1006.7  -0.7  748  282           
21 16.06.12 050 (СВ) 4000 м  дымка  10/0 средняя 
[As trans]
+15.7 +14.8 94 +25  1006.7  748  282           
00 17.06.12 360 (С) 10 км    8/0 средняя, верхняя 
[Ac As|Ci fib]
+19.6 +16.6 83 +33  1006.8  0.2  748  278  +14.9         
03 17.06.12 160 (Ю) >10 км    10/8 600 м кучево-дожд., верхняя 
[Cb cap|Ci fib]
+23.8 +17.7 69 +38  1005.5  -1.1  747  273           
06 17.06.12 090 (В) >10 км  {гроза}  10/4 600 м кучево-дожд., средняя, верхняя 
[Cb cap|Ac cuf|Ci fib]
+23.8 +12.1 48 +28  1004.5  -1  747  274           
09 17.06.12 250 (З) >10 км    9/1 600 м кучево-дожд., средняя, верхняя 
[Cb cap|Ac cuf|Ci]
+23.3 +17.5 70 +37  1004.6  0.1  747  273    +25.1       
12 17.06.12 тихо ()   >10 км    10/0 средняя 
[Ac As]
+21 +17.9 82 +35  1005.8  1.2  748  276    +25.1       
15 17.06.12 тихо ()   >10 км    5/0 средняя, верхняя 
[Ac trans|Ci fib]
+18.2 +17.2 94 +31  1006  748  279           
18 17.06.12 050 (СВ) >10 км    3/0 средняя, верхняя 
[Ac lent|Ci fib]
+16 +15.3 96 +26  1006  748  281           
21 17.06.12 360 (С) 10 км    3/3 300 м 
[St]
+16.2 +15.2 94 +27  1006.6  0.6  748  281           
00 18.06.12 340 (С) >10 км    3/1 1000 м верхняя 
[Cu med, cong|Ci fib]
+20.8 +16.3 75 +32  1006.6  0.2  748  277  +15.2         
03 18.06.12 200 (Ю) >10 км    4/3 600 м кучево-дожд., верхняя 
[Cb cap|Ci fib]
+25.6 +16.6 58 +37  1005.9  -0.6  748  272           
06 18.06.12 200 (Ю) >10 км    4/3 600 м кучево-дожд., средняя, верхняя 
[Cb cap|Ac lent|Ci fib]
+26.1 +16.2 54 +37  1004.6  -1.3  747  271           
09 18.06.12 250 (З) >10 км    6/1 600 м кучево-дожд., верхняя 
[Cb cap|Ci ing]
+24.9 +17.7 64 +39  1004.1  -0.6  746  272    +26.7       
12 18.06.12 230 (ЮЗ) >10 км    4/0 средняя 
[Ac trans]
+20.8 +17.9 83 +35  1005.1  747  276    +26.7       
15 18.06.12 тихо ()   >10 км    ясно 
+17 +16.2 95 +28  1005.7  0.4  747  280           
18 18.06.12 020 (С) >10 км  местами туман поземный  ясно 
+15.8 +15.5 98 +27  1005.7  747  281           
21 18.06.12 050 (СВ) >10 км    ясно 
+16.7 +15.3 91 +27  1006.4  0.7  748  281           
00 19.06.12 250 (З) >10 км    1/1 1000 м 
[Cu med, cong]
+22.5 +17.2 72 +35  1006.9  0.7  749  275  +14.3         
03 19.06.12 250 (З) >10 км    3/3 1000 м 
[Cu med, cong]
+26.5 +16.3 53 +38  1006.1  -0.7  748  271           
06 19.06.12 200 (Ю) >10 км    4/4 600 м кучево-дожд. 
[Cb cap]
+27.4 +17 53 +40  996.2  747  270           
09 19.06.12 270 (З) >10 км    3/1 600 м кучево-дожд., средняя 
[Cb cap|Ac lent]
+26.2 +18.4 62 +41  1004.3  -0.7  747  270    +28.2       
12 19.06.12 290 (З) >10 км    3/0 средняя 
[Ac lent]
+20.8 +18.6 87 +36  1005.1  747  275    +28.2       
15 19.06.12 050 (СВ) >10 км    3/0 средняя 
[Ac trans]
+14.7 +17.1 100 +29  1006.2  0.6  748  282           
18 19.06.12 360 (С) >10 км    ясно 
+17.2 +16.4 95 +30  1006.5  0.3  748  280           
21 19.06.12 070 (В) 10 км    ясно 
+17.9 +16.7 93 +31  1007.3  0.8  749  279           
00 20.06.12 090 (В) >10 км    1/1 1000 м 
[Cu med, cong]
+22.4 +18.3 78 +37  1007.4  0.3  749  275  +15.9         
03 20.06.12 180 (Ю) >10 км    3/3 1000 м 
[Cu med, cong]
+27 +17.9 57 +41  1006.8  -0.5  749  270           
06 20.06.12 110 (В) >10 км    6/6 600 м кучево-дожд. 
[Cb cap]
+28.2 +17.5 52 +42  1005.4  -1.4  747  269           
12 20.06.12 070 (В) >10 км  {гроза}  10/0 средняя, верхняя 
[Ac lent|Cs]
+22 +19.2 84 +39  1007.1  1.1  749  275    +29       
15 20.06.12 тихо ()   >10 км    3/0 верхняя 
[Ci fib]
+18.6 +17.3 92 +32  1007.8  0.3  749  279           
18 20.06.12 270 (З) >10 км  туман поземный  ясно 
+16.7 +15.9 95 +28  1008.3  0.5  749  281           
21 20.06.12 тихо ()   >10 км    3/0 средняя 
[Ac trans]
+16.8 +16.1 96 +27  1008.9  0.6  750  281           
00 21.06.12 180 (Ю) >10 км    3/0 средняя 
[Ac cast]
+23.2 +18.5 75 +39  1008.6  -0.1  750  274  +14.4         
03 21.06.12 230 (ЮЗ) >10 км    3/3 1000 м 
[Cu med, cong]
+28 +17.6 53 +42  1007.7  -0.8  749  270           
06 21.06.12 230 (ЮЗ) >10 км    1/1 1000 м 
[Cu med, cong]
+28.9 +18 52 +43  1006.4  -1.3  748  269           
09 21.06.12 250 (З) >10 км    1/1 1000 м 
[Cu med, cong]
+27.4 +18.7 59 +43  1006.3  -0.1  748  270    +29.7       
12 21.06.12 070 (В) >10 км    8/8 600 м кучево-дожд. 
[Cb cap]
+23.2 +18.3 74 +38  1007.5  1.1  749  274    +29.7       
15 21.06.12 070 (В) >10 км    ясно 
+18.9 +17.1 89 +33  1007.9  0.2  749  278           
18 21.06.12 050 (СВ) >10 км  местами туман поземный  3/0 средняя 
[Ac trans]
+16.6 +15.9 96 +28  1007.6  -0.3  749  281           
21 21.06.12 230 (ЮЗ) >10 км    5/0 средняя 
[Ac trans]
+17.6 +16.6 94 +31  1007.6  749  280           
00 22.06.12 290 (З) >10 км    5/1 600 м кучево-дожд., средняя 
[Cb calv|Ac trans]
+24.2 +18.4 70 +39  1006.9  -0.5  749  273  +15.3         
03 22.06.12 270 (З) >10 км    10/0 средняя 
[Ac As]
+27.8 +20 63 +47  1005.9  -0.9  748  269           
06 22.06.12 180 (Ю) >10 км    9/9 600 м кучево-дожд., средняя 
[Cb cap|As trans]
+28.6 +21.1 64 +50  1004.4  -1.5  747  267           
12 22.06.12 230 (ЮЗ) >10 км  {гроза, ливн. осадки}  10/10 600 м кучево-дожд. 
[Cb cap]
+22.3 +21.1 93 +44  1004.7  0.2  747  273    +30  0.5     
15 22.06.12 230 (ЮЗ) 0500 м  туман  5/0 верхняя 
[Cs]
+19.5 +18.7 95 +37  1004.9  747  276           
18 22.06.12 тихо ()   10 км  туман поземный  ясно 600 м 
+17.9 +17.4 97 +31  1004.9  747  278           
21 22.06.12 тихо ()   10 км    3/0 верхняя 
[Cc]
+19.8 +10.2 54 +21  1004.9  747  279           
00 23.06.12 070 (В) 10 км    ясно 
+23.6 +20.2 81 +43  1005  0.3  747  272  +16.9    0.1     
03 23.06.12 180 (Ю) >10 км    4/4 1000 м верхняя 
[Cu med, cong|Ci fib]
+27.7 +21.3 68 +50  1004.8  -0.1  747  268           
06 23.06.12 180 (Ю) >10 км    8/5 600 м кучево-дожд., верхняя 
[Cb cap|Ci fib]
+29.8 +20.8 58 +51  1003.9  -0.7  746  266           
09 23.06.12 320 (СЗ) 10 км    10/8 600 м кучево-дожд., средняя, верхняя 
[Cb cap|Ac cuf|Ci fib]
+25.6 +19.4 69 +43  1004.4  0.3  747  270    +30.3       
12 23.06.12 070 (В) 10 км    10/1 600 м кучево-дожд., средняя, верхняя 
[Cb cap|Ac trans|Ci]
+21.3 +17.2 77 +34  1005.8  1.3  748  276    +30.3       
15 23.06.12 360 (С) 10 км    6/0 средняя, верхняя 
[Ac trans|Ci fib]
+19.8 +17.5 87 +34  1006.8  0.8  748  277           
18 23.06.12 360 (С) 10 км    3/0 верхняя 
[Ci fib]
+18 +16.8 93 +31  1007.7  0.9  749  279           
21 23.06.12 020 (С) 10 км    3/1 1000 м средняя, верхняя 
[Cu med, cong|Ac trans|Ci fib]
+19 +17.5 91 +34  1008.6  0.9  750  278           
00 24.06.12 110 (В) 10 км    3/0 средняя 
[Ac trans]
+24.4 +19.8 76 +43  1008.7  0.3  750  273  +17.9         
03 24.06.12 180 (Ю) >10 км    6/6 1000 м 
[Cu med, cong]
+28.2 +19.8 60 +46  1008.9  0.3  750  269           
06 24.06.12 200 (Ю) >10 км    5/5 1000 м 
[Cu med, cong]
+29.2 +19.1 55 +46  1008.6  -0.3  750  269           
09 24.06.12 180 (Ю) >10 км    3/0 средняя 
[Ac cuf]
+28.6 +19.6 58 +46  1008.6  750  269    +30.5       
12 24.06.12 070 (В) >10 км    3/0 средняя 
[Ac trans]
+23.1 +19.8 82 +41  1008.9  0.2  750  274    +30.5       
15 24.06.12 тихо ()   >10 км  туман поземный  ясно 
+18.4 +17.4 94 +31  1010.6  1.5  751  280           
18 24.06.12 050 (СВ) 10 км  в посл. час туман  ясно 
+18.6 +18 96 +34  1011.4  0.8  752  279           
21 24.06.12 250 (З) 10 км    ясно 
+18.8 +18 95 +34  1012.6  1.2  753  280           
00 25.06.12 250 (З) 10 км    ясно 
+24.4 +19.9 76 +43  1012.9  0.5  753  274  +17.2         
03 25.06.12 140 (ЮВ) >10 км    4/4 1000 м 
[Cu med, cong]
+28 +19.2 59 +45  1013.2  0.4  753  271           
06 25.06.12 180 (Ю) >10 км    6/6 600 м кучево-дожд. 
[Cb calv]
+29.1 +18.8 54 +45  1012.9  -0.3  753  270           
09 25.06.12 250 (З) >10 км    6/3 1000 м средняя, верхняя 
[Cu med, cong|Ac cuf|Ci]
+28.4 +19.2 57 +45  1012.8  -0.1  753  270    +29.9       
12 25.06.12 тихо ()   >10 км    3/0 средняя 
[Ac cuf]
+23.3 +20.4 84 +43  1014  754  275    +22.9       
15 25.06.12 тихо ()   >10 км    ясно 
+19.4 +17.6 89 +33  1014.7  0.6  754  280           
18 25.06.12 тихо ()   >10 км  туман поземный  ясно 
+18.5 +17.5 94 +32  1015.3  0.6  755  281           
21 25.06.12 340 (С) >10 км    ясно 
+19.8 +18.2 91 +35  1016.5  1.2  756  280           
00 26.06.12 250 (З) >10 км    ясно 
+24.5 +17.5 65 +38  1016.4  756  275  +16.9         
03 26.06.12 270 (З) >10 км    ясно 
+28.2 +14.9 44 +37  1015.8  -0.4  755  273           
06 26.06.12 250 (З) >10 км    ясно 
+29.6 +12.5 35 +34  1014.5  -1.3  754  272           
09 26.06.12 250 (З) >10 км    ясно 
+28.6 +13.1 38 +34  1013.6  -0.9  754  272    +30       
12 26.06.12 250 (З) >10 км    ясно 
+22 +17.5 76 +35  1013.6  -0.1  754  277    +30       
15 26.06.12 тихо ()   >10 км    ясно 
+16.2 +15.5 96 +26  1014.4  0.6  754  283           
18 26.06.12 тихо ()   >10 км  местами туман поземный  ясно 
+14.4 +13.7 96 +21  1014.8  0.2  754  286           
21 26.06.12 020 (С) >10 км    ясно 
+17.4 +14.6 84 +26  1014.9  0.3  754  283           
00 27.06.12 270 (З) >10 км    ясно 
+24.2 +16.2 61 +35  1014.8  754  276  +13.7         
03 27.06.12 250 (З) >10 км    1/1 1000 м 
[Cu hum]
+29.8 +15.2 41 +39  1013.6  -1  754  271           
06 27.06.12 250 (З) >10 км    ясно 
+30.8 +16.1 41 +41  1011.8  -1.6  752  269           
09 27.06.12 250 (З) >10 км    ясно 
+29.3 +16.7 47 +41  1011.1  -0.9  752  270    +31.1       
12 27.06.12 250 (З) >10 км    1/0 средняя 
[Ac As]
+26.5 +12.2 41 +31  1011.1  752  274    +31.1       
15 27.06.12 тихо ()   >10 км    ясно 
+16.3 +14.6 90 +24  1011.5  0.1  752  283           
18 27.06.12 250 (З) >10 км    ясно 
+15 +14.3 96 +23  1011.6  752  284           
21 27.06.12 тихо ()   >10 км    9/0 верхняя 
[Cs]
+17.2 +15.1 87 +26  1012.2  0.7  752  282           
00 28.06.12 020 (С) >10 км    8/0 верхняя 
[Ci]
+25.2 +16.8 60 +37  1011.7  -0.3  752  274  +13.9         
03 28.06.12 250 (З) >10 км    8/0 верхняя 
[Ci]
+30.8 +14.7 38 +39  1010.4  -1  751  269           
06 28.06.12 250 (З) >10 км    5/0 средняя, верхняя 
[Ac lent|Ci fib]
+31.2 +14.6 37 +39  1009  -1.4  750  268           
09 28.06.12 250 (З) >10 км    4/0 верхняя 
[Ci sp]
+30.3 +14.4 38 +38  1008  -1.2  749  269    +32       
12 28.06.12 тихо ()   >10 км    3/0 средняя 
[Ac lent]
+21.9 +16.3 70 +33  1008.5  0.3  750  276    +32       
15 28.06.12 340 (С) >10 км    3/0 средняя 
[Ac lent]
+16.5 +14.9 90 +27  1008.5  -0.1  750  282           
18 28.06.12 360 (С) >10 км    1/0 средняя 
[Ac trans]
+16 +14.2 89 +24  1008.2  -0.3  749  282           
21 28.06.12 020 (С) >10 км    4/0 верхняя 
[Ci]
+17 +14.2 84 +25  1008.7  0.5  750  281           
00 29.06.12 360 (С) >10 км    6/0 средняя, верхняя 
[Ac As|Ci]
+24.7 +17 62 +37  1008.1  -0.4  749  273  +14.3         
03 29.06.12 180 (Ю) >10 км    10/1 600 м кучево-дожд., средняя, верхняя 
[Cb cap|Ac cuf|Ci]
+29.2 +17.6 50 +43  1006.9  -1.1  749  269           
06 29.06.12 230 (ЮЗ) 10 км    9/0 средняя, верхняя 
[Ac trans|Ci]
+31.2 +11.8 30 +35  1005.2  -1.5  747  268           
09 29.06.12 230 (ЮЗ) >10 км    9/0 средняя 
[Ac trans]
+28.5 +17.8 52 +43  1005.1  -0.3  747  269    +31.7       
12 29.06.12 тихо ()   >10 км    9/0 средняя, верхняя 
[Ac lent|Ci fib]
+23.1 +19.7 81 +41  1004.9  -0.3  747  273    +31.7       
15 29.06.12 050 (СВ) >10 км    8/0 средняя, верхняя 
[Ac trans|Ci fib]
+20.5 +18.4 88 +36  1004.7  -0.2  747  276           
18 29.06.12 110 (В) >10 км    9/0 средняя, верхняя 
[Ac lent|Ci fib]
+17.7 +16 90 +30  1004.2  -0.7  746  279           
21 29.06.12 110 (В) >10 км    10/0 средняя 
[Ac As]
+16 +15.3 96 +26  1003.8  -0.3  746  281           
00 30.06.12 230 (ЮЗ) >10 км    10/0 средняя 
[Ac As]
+21 +14.3 66 +29  1004.1  0.4  746  276  +14.7         
03 30.06.12 180 (Ю) >10 км    10/0 средняя 
[Ac As]
+22.9 +15.2 62 +32  1004.1  746  274           
06 30.06.12 230 (ЮЗ) >10 км    10/3 600 м кучево-дожд., средняя 
[Cb cap|As op]
+22.2 +16.6 71 +34  1004.5  0.4  747  275           
12 30.06.12 230 (ЮЗ) 2000 м  слаб. ливневой дождь  10/10 200 м кучево-дожд. 
[Cb cap]
+17.1 +15.7 91 +27  1006.2  1.1  748  280    +23.8  0.0     
18 30.06.12 180 (Ю) 2{10}  4000 м  слаб. дождь{ливн. осадки}  10/10 300 м 
[Frnb]
+15.6 +14.9 96 +25  1006.4  -0.4  748  282           
21 30.06.12 110 (В) 2000 м  слаб. морось{дождь}  10/10 200 м 
[St]
+15.5 +15.3 99 +25  1006  -0.3  748  282           
00 01.07.12 200 (Ю) >10 км  в посл. час морось{дождь}  10/6 1000 м средняя 
[Sc|As op]
+16.8 +15.4 91 +27  1006  748  281  +15.3    12     
03 01.07.12 110 (В) >10 км    9/8 600 м кучево-дожд., средняя 
[Cb cap|Ac As]
+20.4 +17.1 81 +33  1005.8  748  277           
06 01.07.12 070 (В) >10 км    10/8 600 м кучево-дожд., средняя 
[Cb cap|Ac trans]
+20.9 +18 83 +35  1004.9  -0.9  747  275           
09 01.07.12 110 (В) >10 км    10/10 600 м кучево-дожд. 
[Cb cap]
+20.9 +18 83 +35  1003.9  -1  746  275    +22.2       
12 01.07.12 140 (ЮВ) >10 км    10/10 1000 м 
[Sc]
+19.3 +16.5 84 +31  1004.8  0.7  747  277    +22.2  0.0     
15 01.07.12 110 (В) >10 км    10/10 300 м 
[Sc|Ns]
+18 +16.3 90 +30  1004.5  -0.3  747  279           
18 01.07.12 110 (В) 10 км  слаб. морось  10/10 300 м 
[St]
+17.3 +16.6 96 +30  1003.7  -0.7  746  279           
21 01.07.12 110 (В) 10 км  в посл. час морось  10/10 200 м 
[St]
+17.4 +16.7 96 +30  1003.4  -0.3  746  279           
00 02.07.12 140 (ЮВ) >10 км  {морось}  10/10 300 м 
[St]
+18.8 +17 89 +32  1003.9  0.5  746  277  +17.1    0.7     
03 02.07.12 140 (ЮВ) 10 км    10/10 300 м 
[St]
+19.8 +15.8 78 +31  1003.8  -0.1  746  277           
06 02.07.12 160 (Ю) >10 км    10/10 600 м кучево-дожд. 
[Cb cap]
+20.4 +16.4 78 +32  1002.7  -0.9  745  276           
09 02.07.12 110 (В) >10 км    9/8 600 м кучево-дожд., средняя 
[Cb cap|Ac trans]
+20.4 +17.1 81 +33  1002.2  -0.5  745  276    +21.2       
12 02.07.12 050 (СВ) 10 км    10/8 600 м кучево-дожд., средняя 
[Cb cap|Ac As]
+19.4 +17.3 88 +34  1003.1  0.7  746  277    +21.2       
15 02.07.12 050 (СВ) 10 км    10/4 1000 м средняя 
[Sc|Ac As]
+18.9 +16.9 88 +32  1002.9  -0.2  745  277           
18 02.07.12 050 (СВ) 10 км  в посл. час дождь  10/10 600 м 
[Sc|Ns]
+18.2 +17.4 95 +33  1001.8  -1.1  745  277           
21 02.07.12 050 (СВ) 4000 м  слаб. дождь  10/10 600 м 
[Frnb|Ns]
+18 +17.7 98 +33  1001.9  0.1  745  277           
00 03.07.12 090 (В) 4000 м  слаб. дождь  10/10 200 м 
[Frnb|Ns]
+18.9 +18.4 97 +35  1002  0.1  745  276  +17.8       
03 03.07.12 230 (ЮЗ) 2000 м  дождь  10/10 200 м 
[Frnb|Ns]
+20.4 +19.9 97 +39  1001.8  745  274           
06 03.07.12 110 (В) >10 км  {дождь}  9/9 600 м кучево-дожд., средняя, верхняя 
[Cb cap|Ac trans|Ci fib]
+23.4 +20 81 +42  1000.6  -1.2  744  271           
12 03.07.12 тихо ()   >10 км    3/1 600 м кучево-дожд., средняя 
[Cb cap|Ac lent]
+21.1 +19.7 92 +39  1000.7  0.5  744  273    +25     
15 03.07.12 тихо ()   >10 км  зарница  8/5 600 м кучево-дожд., средняя 
[Cb cap|Ac trans]
+19.8 +19 95 +36  1001.6  0.7  744  275           
18 03.07.12 050 (СВ) 10 км  гроза, ливневой дождь  9/8 600 м кучево-дожд., средняя 
[Cb cap|Ac trans]
+19 +18.7 98 +37  1001.3  -0.3  744  276           
Время (UTC), дата Ветер
(°,м/с) 
Видим.   Явления Облачность Т
(°С)
Тd
(°С)
f(%) Тe
(°С)
Pmin
(гПа)
dP
(гПа)
Po
(мм)
O2
(г/м3)
Тmin Tmax R s Состояние
почвы